STARLINK-31789, 59644

Orbit data source: Space-Track

STARLINK-31789, 59644 is a payload satellite owned by SpaceX/Seattle (US) in LEO that was launched on Fri, 03 May 2024 UTC via an FALCON 9 launch vehicle from the Air Force Eastern Test Range (AFETR). Payload-class satellites include a variety of spacecraft equipped with specific instruments for various scientific and technological missions. These include communications satellites like Starlink; space stations such as the ISS; scientific satellites like the Hubble; Earth observation satellites from companies like Planet Labs, Umbra, and HawkEye 360; GPS; miniature CubeSats for education and research; and military/defense satellites.

Loading next visibility...
Identifier
59644, 2024-082P
Orbit
LEO
Country
Flag of USUS
Related business
Manufacturer
SpaceX/Seattle
Mission
Operational Commercial Communications
Bus & Motor
STARLINK V2M, Unknown motor
Mass
730 kg wet, ~700 kg dry
Launch date (UTC)
2024-05-03 (2 years ago)
Launch vehicle
FALCON 9
Launch site
Air Force Eastern Test Range (AFETR)
Object type
Payload
Rocket body
Debris
Shape & HBR
Box + 2 Pan, 17.7 m
Radar Cross Section
33.884 m², Large (>1 m²)

Expand to show TLE details & history
Last TLE update: 2 days ago

TLE from 2 days ago
0 STARLINK-31789
1 59644U 24082P   26171.34758716  .00024572  00000-0  89865-3 0  9991
2 59644  43.0020 279.9230 0001981 265.1540  94.9085 15.27609618120714
Epoch: 2026-06-20T08:20Z
TLE epoch observation values (Epoch: 2026-06-20T08:20:31.530Z)
Latitude
-0.00006°
Longitude
-113.77195°
Altitude
482.853 km
Speed
7.626 km/s
True Right ascension
18h 39m 41s
True Declination
0° 00' 00"
Sunlit
Object was in full shadow at epoch
Visualization orbit readout
Latitude
Unknown
Longitude
Unknown
Altitude
Unknown
Speed
Unknown
Apparent Right ascension
Unknown
Apparent Declination
Unknown
Sunlit
N/A
Visualization observer readout
Local Sidereal Time
21:27:24
Azimuth
Unknown
Elevation
Unknown
Doppler factor
Unknown
Orbital elements
Apogee altitude
486.265 km
Perigee altitude
483.546 km
Semi-major axis
6,863.042 km
Eccentricity
0.0002
Inclination
43.002°
RAAN
279.923°
Arg. of periapsis
265.154°
True anomaly
94.93112°
Mean anomaly
94.9085°
Eccentric anomaly
94.91981°
Mean motion
3.8174 °/min
Orbital period
94.3 mins
BSTAR
0.00089865
Loading maneuver chart data...
Computing Atmospheric mass density...
Loading historical data...
Loading historical data...
Loading historical data...
Loading historical data...
Loading historical data...
Loading historical data...
Loading historical data...

Documentation

Showing up to 5 results
|